LRCK Weather Reports


Display with metric or nautical units.
time (UTC)temp
F
wind
direction
speed
MPH
gust
MPH
rain 1hr
in
rain 24hr
in
rain mn
in
humidity
%
barometer
mb
20260901180318 68 140 5.0 0.0 0.00 0.00 0.00 64 1017.0
20260901174816 68 150 7.0 0.0 0.00 0.00 0.00 64 1017.0
20260901173318 68 150 7.0 0.0 0.00 0.00 0.00 64 1017.0
20260901171818 72 130 6.0 0.0 0.00 0.00 0.00 57 1016.0
20260901170318 72 130 6.0 0.0 0.00 0.00 0.00 57 1016.0
20260901164818 73 130 7.0 0.0 0.00 0.00 0.00 53 1016.0
20260901163324 73 130 7.0 0.0 0.00 0.00 0.00 53 1016.0
20260901161817 77 130 8.0 0.0 0.00 0.00 0.00 47 1016.0
20260901160321 77 130 8.0 0.0 0.00 0.00 0.00 47 1016.0
20260901154817 79 130 10.0 0.0 0.00 0.00 0.00 45 1016.0
20260901153317 79 130 10.0 0.0 0.00 0.00 0.00 45 1016.0
20260901151817 79 140 10.0 0.0 0.00 0.00 0.00 37 1016.0
20260901150317 79 140 10.0 0.0 0.00 0.00 0.00 37 1016.0
20260901144855 81 130 10.0 0.0 0.00 0.00 0.00 37 1016.0
20260901143317 81 130 10.0 0.0 0.00 0.00 0.00 37 1016.0
20260901141833 81 130 10.0 0.0 0.00 0.00 0.00 37 1016.0
20260901140433 81 130 10.0 0.0 0.00 0.00 0.00 37 1016.0
20260901134817 82 110 11.0 0.0 0.00 0.00 0.00 32 1016.0
20260901133318 82 110 11.0 0.0 0.00 0.00 0.00 32 1016.0
20260901131826 82 120 10.0 0.0 0.00 0.00 0.00 32 1016.0
20260901130317 82 120 10.0 0.0 0.00 0.00 0.00 32 1016.0
20260901124823 82 100 9.0 0.0 0.00 0.00 0.00 35 1016.0
20260901123318 82 100 9.0 0.0 0.00 0.00 0.00 35 1016.0
20260901121816 82 90 8.0 0.0 0.00 0.00 0.00 40 1017.0
20260901120317 82 90 8.0 0.0 0.00 0.00 0.00 40 1017.0
20260901114817 84 90 9.0 0.0 0.00 0.00 0.00 37 1017.0
20260901113317 84 90 9.0 0.0 0.00 0.00 0.00 37 1017.0
20260901111817 84 110 8.0 0.0 0.00 0.00 0.00 37 1017.0
20260901110317 84 110 8.0 0.0 0.00 0.00 0.00 37 1017.0
20260901104817 84 100 8.0 0.0 0.00 0.00 0.00 37 1017.0
20260901103317 84 100 8.0 0.0 0.00 0.00 0.00 37 1017.0
20260901101915 82 5.0 0.0 0.00 0.00 0.00 40 1017.0
20260901100319 82 5.0 0.0 0.00 0.00 0.00 40 1017.0
20260901094818 81 7.0 0.0 0.00 0.00 0.00 42 1017.0
20260901093317 81 7.0 0.0 0.00 0.00 0.00 42 1017.0
20260901091817 81 120 5.0 0.0 0.00 0.00 0.00 45 1017.0
20260901090317 81 120 5.0 0.0 0.00 0.00 0.00 45 1017.0
20260901084817 79 120 6.0 0.0 0.00 0.00 0.00 48 1017.0
20260901083326 79 120 6.0 0.0 0.00 0.00 0.00 48 1017.0
20260901081817 81 110 6.0 0.0 0.00 0.00 0.00 42 1017.0
20260901080319 81 110 6.0 0.0 0.00 0.00 0.00 42 1017.0
20260901074824 77 90 6.0 0.0 0.00 0.00 0.00 54 1017.0
20260901073317 77 90 6.0 0.0 0.00 0.00 0.00 54 1017.0
20260901071816 75 110 5.0 0.0 0.00 0.00 0.00 61 1017.0
20260901070316 75 110 5.0 0.0 0.00 0.00 0.00 61 1017.0
20260901064817 75 90 5.0 0.0 0.00 0.00 0.00 65 1017.0
20260901063318 75 90 5.0 0.0 0.00 0.00 0.00 65 1017.0
20260901061818 72 50 3.0 0.0 0.00 0.00 0.00 73 1017.0
20260901060317 72 50 3.0 0.0 0.00 0.00 0.00 73 1017.0
20260901054817 72 350 3.0 0.0 0.00 0.00 0.00 78 1017.0
20260901053317 72 350 3.0 0.0 0.00 0.00 0.00 78 1017.0
20260901051817 68 10 5.0 0.0 0.00 0.00 0.00 83 1017.0
20260901050317 68 10 5.0 0.0 0.00 0.00 0.00 83 1017.0
20260901044837 61 360 5.0 0.0 0.00 0.00 0.00 94 1017.0
20260901043317 61 360 5.0 0.0 0.00 0.00 0.00 94 1017.0
20260901041814 59 350 5.0 0.0 0.00 0.00 0.00 94 1016.0
20260901040316 59 350 5.0 0.0 0.00 0.00 0.00 94 1016.0
20260901034817 59 360 5.0 0.0 0.00 0.00 0.00 94 1017.0
20260901033317 59 360 5.0 0.0 0.00 0.00 0.00 94 1017.0
20260901031810 59 360 6.0 0.0 0.00 0.00 0.00 94 1016.0
20260901030316 59 360 6.0 0.0 0.00 0.00 0.00 94 1016.0
20260901024817 59 360 6.0 0.0 0.00 0.00 0.00 94 1016.0
20260901023317 59 360 6.0 0.0 0.00 0.00 0.00 94 1016.0
20260901021814 59 10 5.0 0.0 0.00 0.00 0.00 94 1017.0
20260901020313 59 10 5.0 0.0 0.00 0.00 0.00 94 1017.0
20260901014814 59 20 5.0 0.0 0.00 0.00 0.00 94 1017.0
20260901013317 59 20 5.0 0.0 0.00 0.00 0.00 94 1017.0
20260901011818 61 350 2.0 0.0 0.00 0.00 0.00 94 1017.0
20260901010318 61 350 2.0 0.0 0.00 0.00 0.00 94 1017.0
20260901004817 59 290 5.0 0.0 0.00 0.00 0.00 94 1017.0
20260901003317 59 290 5.0 0.0 0.00 0.00 0.00 94 1017.0
20260901001813 59 270 3.0 0.0 0.00 0.00 0.00 94 1017.0
20260901000317 59 270 3.0 0.0 0.00 0.00 0.00 94 1017.0
20260831234817 61 0 0.0 0.0 0.00 0.00 0.00 94 1017.0
20260831233317 61 0 0.0 0.0 0.00 0.00 0.00 94 1017.0
20260831231818 61 0 0.0 0.0 0.00 0.00 0.00 94 1017.0
20260831230317 61 0 0.0 0.0 0.00 0.00 0.00 94 1017.0
20260831224816 63 0 0.0 0.0 0.00 0.00 0.00 94 1017.0
20260831223317 63 0 0.0 0.0 0.00 0.00 0.00 94 1017.0
20260831221818 61 1.0 0.0 0.00 0.00 0.00 94 1017.0
20260831220317 61 1.0 0.0 0.00 0.00 0.00 94 1017.0
20260831214817 61 100 2.0 0.0 0.00 0.00 0.00 94 1017.0
20260831213317 61 100 2.0 0.0 0.00 0.00 0.00 94 1017.0
20260831211816 63 110 3.0 0.0 0.00 0.00 0.00 94 1017.0
20260831210317 63 110 3.0 0.0 0.00 0.00 0.00 94 1017.0
20260831204818 64 120 1.0 0.0 0.00 0.00 0.00 88 1018.0
20260831203318 64 120 1.0 0.0 0.00 0.00 0.00 88 1018.0
20260831201817 64 150 2.0 0.0 0.00 0.00 0.00 83 1018.0
20260831200316 64 150 2.0 0.0 0.00 0.00 0.00 83 1018.0
20260831194818 64 150 1.0 0.0 0.00 0.00 0.00 83 1017.0
20260831193317 64 150 1.0 0.0 0.00 0.00 0.00 83 1017.0
20260831191818 64 160 3.0 0.0 0.00 0.00 0.00 83 1017.0
20260831190319 64 160 3.0 0.0 0.00 0.00 0.00 83 1017.0
20260831184818 64 2.0 0.0 0.00 0.00 0.00 83 1018.0
20260831183317 64 2.0 0.0 0.00 0.00 0.00 83 1018.0
20260831181818 68 120 3.0 0.0 0.00 0.00 0.00 78 1018.0